1486594800.34,33669,10.56,73596.5,-8.13,-9.89,-9.79,0,*5C
1486594801.54,33670,10.56,73596.5,-8.13,-9.75,-9.79,0,*57
1486594802.77,33671,10.56,73598.8,-8.15,-9.79,-9.79,0,*5C
1486594803.97,33672,10.5,73594.3,-8.13,-9.79,-9.79,0,*59
1486594805.2,33673,10.56,73594.5,-8.11,-9.75,-9.75,0,*5A
1486594806.4,33674,10.56,73592.3,-8.13,-9.79,-9.79,0,*5F
1486594807.6,33675,10.56,73594.0,-8.13,-9.79,-9.79,0,*5E
1486594808.8,33676,10.56,73596.3,-8.13,-9.79,-9.79,0,*5D
1486594810.0,33677,10.56,73592.8,-8.13,-9.79,-9.89,0,*53
1486594811.2,33678,10.5,73592.8,-8.13,-9.79,-9.79,0,*53
1486594812.4,33679,10.56,73592.3,-8.13,-9.67,-9.67,0,*52
1486594813.67,33680,10.56,73592.5,-8.11,-9.61,-9.61,0,*56
1486594814.87,33681,10.5,73594.0,-8.13,-9.67,-9.67,0,*55
1486594816.09,33682,10.56,73594.8,-8.13,-9.67,-9.61,0,*50
1486594817.31,33683,10.5,73592.8,-8.13,-9.67,-9.61,0,*51
1486594818.54,33684,10.56,73592.8,-8.13,-9.67,-9.53,0,*57
1486594819.76,33685,10.56,73590.3,-8.13,-9.67,-9.53,0,*56
1486594821.01,33686,10.56,73592.5,-8.13,-9.61,-9.61,0,*52
1486594822.27,33687,10.56,73590.0,-8.11,-9.57,-9.49,0,*5E
1486594823.55,33688,10.5,73590.5,-8.11,-9.49,-9.49,0,*5E
1486594824.83,33689,10.5,73590.5,-8.11,-9.45,-9.45,0,*5F
1486594826.1,33690,10.56,73592.5,-8.11,-9.45,-9.37,0,*52
1486594827.38,33691,10.56,73594.3,-8.11,-9.45,-9.37,0,*53
1486594828.66,33692,10.56,73594.8,-8.11,-9.45,-9.37,0,*50
1486594829.93,33693,10.56,73592.3,-8.11,-9.45,-9.37,0,*51
1486594831.22,33694,10.56,73592.5,-8.11,-9.37,-9.37,0,*53
1486594832.49,33695,10.56,73592.5,-8.11,-9.45,-9.37,0,*57
1486594833.77,33696,10.56,73592.5,-8.11,-9.45,-9.45,0,*51
1486594835.05,33697,10.56,73594.8,-8.07,-9.41,-9.41,0,*57
1486594836.33,33698,10.5,73594.0,-8.11,-9.45,-9.37,0,*5A
1486594837.6,33699,10.56,73594.5,-8.11,-9.45,-9.45,0,*5E
1486594838.88,33700,10.56,73596.5,-8.11,-9.61,-9.45,0,*59
1486594840.15,33701,10.56,73594.3,-8.11,-9.49,-9.37,0,*57
1486594841.43,33702,10.5,73594.8,-8.11,-9.49,-9.37,0,*54
1486594842.7,33703,10.56,73594.0,-8.11,-9.49,-9.45,0,*50
1486594843.98,33704,10.56,73594.5,-8.11,-9.45,-9.45,0,*5B
1486594845.25,33705,10.56,73592.8,-8.11,-9.45,-9.37,0,*5F
1486594846.53,33706,10.56,73592.5,-8.11,-9.45,-9.37,0,*5C
1486594847.76,33707,10.56,73598.5,-8.11,-9.31,-9.23,0,*5B
1486594848.98,33708,10.56,73594.8,-8.11,-9.31,-9.23,0,*54
1486594850.23,33709,10.56,73594.3,-8.07,-9.19,-9.15,0,*5D
1486594851.45,33710,10.56,73596.8,-8.07,-9.19,-9.19,0,*59
1486594852.68,33711,10.56,73596.0,-8.11,-9.23,-9.19,0,*56
1486594853.94,33712,10.56,73592.3,-8.07,-9.15,-9.05,0,*5A
1486594855.19,33713,10.5,73588.3,-8.07,-9.19,-9.15,0,*56
1486594856.41,33714,10.56,73592.0,-8.11,-9.19,-9.19,0,*5A
1486594857.66,33715,10.56,73594.8,-8.11,-9.19,-9.11,0,*53
1486594858.92,33716,10.5,73592.0,-8.07,-9.15,-9.05,0,*5E
1486594860.17,33717,10.56,73594.3,-8.11,-9.19,-9.11,0,*51
1486594861.43,33718,10.5,73594.0,-8.07,-9.15,-9.05,0,*50
1486594862.71,33719,10.56,73594.3,-8.07,-9.15,-9.15,0,*50
1486594863.94,33720,10.5,73592.0,-8.07,-9.19,-9.05,0,*57
1486594865.17,33721,10.5,73592.8,-8.07,-9.27,-9.19,0,*56
1486594866.39,33722,10.56,73598.0,-8.11,-9.31,-9.19,0,*55
1486594867.61,33723,10.56,73598.8,-8.07,-9.27,-9.19,0,*54
1486594868.84,33724,10.56,73594.0,-8.07,-9.31,-9.19,0,*54
1486594870.09,33725,10.56,73592.8,-8.07,-9.41,-9.19,0,*52
1486594871.34,33726,10.5,73592.5,-8.07,-9.41,-9.27,0,*5C
1486594872.62,33727,10.56,73596.3,-8.11,-9.49,-9.45,0,*56
1486594873.86,33728,10.56,73598.3,-8.07,-9.45,-9.31,0,*51
1486594875.14,33729,10.56,73592.8,-8.07,-9.45,-9.41,0,*57
1486594876.41,33730,10.56,73594.8,-8.11,-9.49,-9.45,0,*50
1486594877.68,33731,10.56,73592.8,-8.11,-9.57,-9.45,0,*5E
1486594878.95,33732,10.56,73598.3,-8.11,-9.57,-9.45,0,*5D
1486594880.22,33733,10.56,73592.0,-8.11,-9.49,-9.45,0,*53
1486594881.47,33734,10.56,73596.5,-8.07,-9.45,-9.31,0,*5C
1486594882.74,33735,10.5,73590.8,-8.07,-9.45,-9.41,0,*5A
1486594884.01,33736,10.56,73596.3,-8.07,-9.57,-9.41,0,*5A
1486594885.28,33737,10.56,73594.3,-8.07,-9.57,-9.45,0,*5F
1486594886.55,33738,10.56,73594.8,-8.11,-9.61,-9.49,0,*5E
1486594887.82,33739,10.56,73596.8,-8.07,-9.57,-9.45,0,*51
1486594889.09,33740,10.56,73598.0,-8.11,-9.61,-9.49,0,*51
1486594890.36,33741,10.5,73592.0,-8.07,-9.53,-9.45,0,*5A
1486594891.63,33742,10.56,73596.3,-8.11,-9.49,-9.49,0,*59
1486594892.89,33743,10.5,73594.0,-8.11,-9.71,-9.49,0,*53
1486594894.16,33744,10.56,73594.5,-8.07,-9.57,-9.45,0,*5B
1486594895.43,33745,10.56,73594.8,-8.07,-9.53,-9.45,0,*5E
1486594896.7,33746,10.56,73596.0,-8.07,-9.53,-9.45,0,*5D
1486594897.98,33747,10.56,73598.5,-8.07,-9.53,-9.45,0,*5C
1486594899.25,33748,10.56,73596.3,-8.07,-9.53,-9.53,0,*54
1486594900.52,33749,10.56,73596.0,-8.07,-9.57,-9.53,0,*51
1486594901.79,33750,10.5,73592.3,-8.07,-9.53,-9.45,0,*5A
1486594903.04,33751,10.56,73598.3,-8.05,-9.57,-9.53,0,*5A
1486594904.25,33752,10.56,73596.3,-8.05,-9.57,-9.67,0,*5E
1486594905.45,33753,10.5,73594.3,-8.05,-9.67,-9.67,0,*5C
1486594906.68,33754,10.56,73596.8,-8.07,-9.67,-9.67,0,*59
1486594907.9,33755,10.56,73596.0,-8.07,-9.67,-9.67,0,*58
1486594909.12,33756,10.56,73598.5,-8.07,-9.67,-9.67,0,*5B
1486594910.37,33757,10.56,73596.3,-8.07,-9.67,-9.57,0,*59
1486594911.6,33758,10.56,73598.0,-8.07,-9.71,-9.67,0,*52
1486594912.83,33759,10.5,73592.0,-8.07,-9.67,-9.67,0,*54
1486594914.05,33760,10.5,73594.0,-8.07,-9.67,-9.67,0,*5E
1486594915.29,33761,10.56,73594.0,-8.05,-9.57,-9.57,0,*5D
1486594916.5,33762,10.56,73596.5,-8.05,-9.67,-9.57,0,*5D
1486594917.74,33763,10.56,73594.5,-8.05,-9.57,-9.57,0,*5F
1486594918.98,33764,10.5,73592.5,-8.05,-9.57,-9.57,0,*58
1486594920.22,33765,10.56,73596.0,-8.05,-9.57,-9.57,0,*59
1486594921.41,33766,10.56,73598.3,-8.05,-9.67,-9.67,0,*5A
1486594922.61,33767,10.56,73596.0,-8.05,-9.67,-9.67,0,*5B
1486594923.88,33768,10.56,73598.0,-8.03,-9.57,-9.57,0,*52
1486594925.07,33769,10.56,73594.3,-8.05,-9.67,-9.67,0,*55
1486594926.29,33770,10.5,73596.3,-8.05,-9.57,-9.67,0,*5E
1486594927.49,33771,10.5,73594.5,-8.05,-9.67,-9.67,0,*5C
1486594928.69,33772,10.56,73598.5,-8.05,-9.67,-9.67,0,*5F
1486594929.9,33773,10.56,73598.5,-8.05,-9.57,-9.67,0,*5D
1486594931.12,33774,10.56,73594.5,-8.05,-9.57,-9.67,0,*5A
1486594932.36,33775,10.56,73596.5,-8.05,-9.57,-9.57,0,*58
1486594933.55,33776,10.56,73594.8,-8.05,-9.67,-9.67,0,*5B
1486594934.75,33777,10.56,73590.5,-8.05,-9.67,-9.67,0,*5A
1486594935.95,33778,10.56,73592.0,-8.05,-9.67,-9.67,0,*55
1486594937.17,33779,10.56,73592.8,-8.07,-9.67,-9.67,0,*56
1486594938.37,33780,10.56,73592.8,-8.05,-9.67,-9.67,0,*52
1486594939.59,33781,10.56,73592.0,-8.05,-9.67,-9.57,0,*50
1486594940.79,33782,10.56,73596.0,-8.05,-9.67,-9.67,0,*50
1486594941.99,33783,10.56,73598.5,-8.05,-9.67,-9.67,0,*51
1486594943.21,33784,10.5,73594.0,-8.07,-9.67,-9.67,0,*54
1486594944.44,33785,10.56,73594.8,-8.07,-9.71,-9.67,0,*52
1486594945.64,33786,10.5,73592.3,-8.05,-9.71,-9.67,0,*53
1486594946.85,33787,10.56,73596.0,-8.05,-9.71,-9.67,0,*52
1486594948.07,33788,10.5,73592.3,-8.07,-9.67,-9.67,0,*58
1486594949.32,33789,10.56,73598.0,-8.07,-9.67,-9.57,0,*5A
1486594950.56,33790,10.56,73594.3,-8.07,-9.67,-9.57,0,*52
1486594951.78,33791,10.5,73594.5,-8.05,-9.67,-9.57,0,*51
1486594952.98,33792,10.56,73596.3,-8.05,-9.67,-9.67,0,*51
1486594954.18,33793,10.5,73594.5,-8.05,-9.71,-9.67,0,*57
1486594955.41,33794,10.56,73598.3,-8.05,-9.71,-9.57,0,*53
1486594956.61,33795,10.56,73594.5,-8.05,-9.71,-9.67,0,*51
1486594957.84,33796,10.56,73596.5,-8.07,-9.71,-9.67,0,*50
1486594959.04,33797,10.5,73594.3,-8.05,-9.71,-9.67,0,*53
1486594960.27,33798,10.5,73598.0,-8.05,-9.71,-9.57,0,*5F
1486594961.47,33799,10.56,73596.5,-8.05,-9.71,-9.67,0,*5D
1486594962.67,33800,10.56,73596.3,-8.05,-9.79,-9.67,0,*5A
1486594963.9,33801,10.5,73592.0,-8.03,-9.71,-9.67,0,*55
1486594965.11,33802,10.56,73598.8,-8.05,-9.71,-9.67,0,*50
1486594966.34,33803,10.56,73592.8,-8.03,-9.71,-9.71,0,*50
1486594967.54,33804,10.56,73594.8,-8.05,-9.71,-9.71,0,*51
1486594968.77,33805,10.56,73598.5,-8.03,-9.71,-9.71,0,*56
1486594969.98,33806,10.5,73590.8,-8.05,-9.71,-9.71,0,*53
1486594971.21,33807,10.56,73596.3,-8.03,-9.71,-9.71,0,*54
1486594972.4,33808,10.5,73596.3,-8.05,-9.67,-9.67,0,*5D
1486594973.64,33809,10.56,73596.8,-8.03,-9.71,-9.71,0,*5A
1486594974.84,33810,10.5,73592.0,-8.05,-9.71,-9.71,0,*54
1486594976.04,33811,10.5,73590.8,-8.05,-9.67,-9.71,0,*52
1486594977.26,33812,10.5,73592.5,-8.03,-9.67,-9.71,0,*57
1486594978.46,33813,10.5,73592.5,-8.05,-9.67,-9.71,0,*50
1486594979.66,33814,10.56,73594.8,-8.05,-9.67,-9.67,0,*50
1486594980.88,33815,10.56,73598.8,-8.05,-9.57,-9.67,0,*52
1486594982.1,33816,10.56,73598.0,-8.03,-9.67,-9.67,0,*54
1486594983.3,33817,10.56,73598.5,-8.05,-9.67,-9.67,0,*53
1486594984.56,33818,10.56,73596.5,-8.03,-9.57,-9.57,0,*5A
1486594985.81,33819,10.56,73594.8,-8.03,-9.57,-9.67,0,*58
1486594987.05,33820,10.56,73598.5,-8.05,-9.53,-9.53,0,*57
1486594988.25,33821,10.5,73594.0,-8.05,-9.67,-9.67,0,*56
1486594989.48,33822,10.5,73594.5,-8.03,-9.67,-9.67,0,*53
1486594990.67,33823,10.56,73596.3,-8.05,-9.67,-9.67,0,*54
1486594991.91,33824,10.56,73598.8,-8.05,-9.57,-9.57,0,*53
1486594993.17,33825,10.56,73598.3,-8.03,-9.57,-9.57,0,*54
1486594994.4,33826,10.5,73594.0,-8.03,-9.67,-9.67,0,*57
1486594995.62,33827,10.56,73598.8,-8.05,-9.67,-9.57,0,*53
1486594996.85,33828,10.5,73594.0,-8.05,-9.57,-9.57,0,*5F
1486594998.07,33829,10.56,73596.5,-8.05,-9.57,-9.67,0,*5D
1486594999.29,33830,10.5,73594.8,-8.05,-9.67,-9.57,0,*55
1486595000.53,33831,10.56,73596.0,-8.03,-9.67,-9.57,0,*52
1486595001.78,33832,10.56,73594.3,-8.05,-9.53,-9.45,0,*53
1486595003.04,33833,10.56,73592.3,-8.03,-9.57,-9.57,0,*53
1486595004.27,33834,10.56,73594.8,-8.03,-9.67,-9.67,0,*54
1486595005.51,33835,10.5,73590.3,-8.03,-9.67,-9.57,0,*56
1486595006.73,33836,10.56,73594.8,-8.03,-9.67,-9.67,0,*56
1486595007.95,33837,10.56,73592.0,-8.05,-9.67,-9.57,0,*52
1486595009.22,33838,10.56,73596.5,-8.03,-9.57,-9.57,0,*58
1486595010.45,33839,10.56,73598.3,-8.05,-9.57,-9.57,0,*5F
1486595011.72,33840,10.56,73598.5,-8.03,-9.57,-9.53,0,*53
1486595013.0,33841,10.5,73598.8,-8.03,-9.53,-9.45,0,*51
1486595014.24,33842,10.56,73602.3,-8.05,-9.53,-9.45,0,*54
1486595015.49,33843,10.56,73598.0,-8.05,-9.45,-9.45,0,*52
1486595016.74,33844,10.56,73598.8,-8.05,-9.53,-9.53,0,*55
1486595018.01,33845,10.5,73594.5,-8.03,-9.57,-9.45,0,*51
1486595019.28,33846,10.56,73594.8,-8.03,-9.57,-9.45,0,*52
1486595020.55,33847,10.5,73594.0,-8.03,-9.53,-9.53,0,*50
1486595021.79,33848,10.56,73598.5,-8.05,-9.57,-9.53,0,*5D
1486595023.06,33849,10.56,73594.8,-8.03,-9.57,-9.53,0,*5A
1486595024.34,33850,10.5,73590.8,-8.03,-9.53,-9.53,0,*56
1486595025.61,33851,10.56,73594.0,-8.03,-9.57,-9.53,0,*53
1486595026.85,33852,10.56,73592.3,-8.03,-9.67,-9.57,0,*57
1486595028.08,33853,10.56,73598.8,-8.03,-9.67,-9.67,0,*55
1486595029.32,33854,10.56,73592.0,-8.03,-9.67,-9.57,0,*51
1486595030.55,33855,10.56,73592.0,-8.05,-9.71,-9.57,0,*51
1486595031.8,33856,10.56,73592.5,-8.03,-9.71,-9.57,0,*54
1486595033.05,33857,10.5,73594.8,-8.01,-9.61,-9.53,0,*52
1486595034.27,33858,10.56,73594.5,-8.03,-9.67,-9.67,0,*5E
1486595035.49,33859,10.56,73596.0,-8.03,-9.67,-9.67,0,*5F
1486595036.71,33860,10.5,73594.3,-8.05,-9.67,-9.57,0,*50
1486595037.94,33861,10.5,73592.8,-8.03,-9.67,-9.67,0,*54
1486595039.18,33862,10.5,73598.3,-8.03,-9.67,-9.57,0,*54
1486595040.43,33863,10.56,73596.8,-8.03,-9.67,-9.57,0,*55
1486595041.68,33864,10.56,73596.3,-8.03,-9.67,-9.53,0,*56
1486595042.93,33865,10.56,73596.0,-8.03,-9.67,-9.53,0,*57
1486595044.15,33866,10.56,73600.8,-8.05,-9.67,-9.57,0,*56
1486595045.39,33867,10.56,73596.5,-8.01,-9.61,-9.61,0,*50
1486595046.62,33868,10.5,73592.5,-8.01,-9.67,-9.61,0,*59
1486595047.85,33869,10.56,73592.8,-8.03,-9.71,-9.67,0,*5B
1486595049.08,33870,10.5,73594.5,-8.03,-9.71,-9.67,0,*53
1486595050.31,33871,10.5,73594.5,-8.03,-9.71,-9.67,0,*52
1486595051.54,33872,10.56,73600.5,-8.03,-9.71,-9.67,0,*51
1486595052.77,33873,10.56,73596.5,-8.03,-9.71,-9.67,0,*50
1486595054.0,33874,10.56,73592.8,-8.03,-9.71,-9.67,0,*57
1486595055.23,33875,10.56,73598.0,-8.03,-9.71,-9.67,0,*56
1486595056.46,33876,10.56,73596.0,-8.03,-9.71,-9.67,0,*55
1486595057.68,33877,10.5,73592.3,-8.01,-9.67,-9.61,0,*57
1486595058.93,33878,10.5,73594.0,-8.01,-9.61,-9.61,0,*5E
1486595060.2,33879,10.5,73596.0,-7.99,-9.61,-9.61,0,*51
1486595061.43,33880,10.5,73592.3,-8.03,-9.71,-9.67,0,*5C
1486595062.66,33881,10.56,73592.3,-8.03,-9.71,-9.67,0,*5D
1486595063.86,33882,10.5,73592.8,-8.05,-9.71,-9.67,0,*58
1486595065.12,33883,10.56,73596.8,-8.03,-9.71,-9.57,0,*5C
1486595066.36,33884,10.56,73596.0,-8.03,-9.67,-9.57,0,*5C
1486595067.6,33885,10.56,73596.3,-8.03,-9.67,-9.57,0,*5D
1486595068.85,33886,10.5,73592.0,-8.03,-9.67,-9.57,0,*5E
1486595070.07,33887,10.56,73592.8,-8.01,-9.67,-9.61,0,*58
1486595071.29,33888,10.5,73592.5,-8.01,-9.67,-9.61,0,*57
1486595072.55,33889,10.56,73592.8,-7.99,-9.67,-9.61,0,*58
1486595073.77,33890,10.5,73594.3,-8.03,-9.79,-9.67,0,*55
1486595074.98,33891,10.56,73594.5,-8.01,-9.75,-9.75,0,*59
1486595076.18,33892,10.56,73592.0,-8.01,-9.75,-9.67,0,*59
1486595077.38,33893,10.5,73594.3,-8.01,-9.67,-9.67,0,*5B
1486595078.58,33894,10.5,73590.5,-8.01,-9.75,-9.75,0,*5C
1486595079.78,33895,10.56,73590.5,-8.01,-9.75,-9.75,0,*5D
1486595080.98,33896,10.5,73590.0,-8.01,-9.67,-9.75,0,*5D
1486595082.21,33897,10.5,73586.0,-8.03,-9.71,-9.71,0,*5D
1486595083.41,33898,10.56,73594.5,-8.01,-9.67,-9.67,0,*50
1486595084.62,33899,10.56,73592.3,-8.01,-9.75,-9.67,0,*52
1486595085.81,33900,10.56,73594.3,-8.01,-9.67,-9.67,0,*50
1486595087.02,33901,10.56,73592.3,-8.01,-9.75,-9.67,0,*52
1486595088.22,33902,10.56,73592.0,-8.01,-9.67,-9.67,0,*52
1486595089.42,33903,10.56,73594.3,-8.01,-9.75,-9.75,0,*53
1486595090.62,33904,10.56,73596.0,-8.01,-9.75,-9.67,0,*57
1486595091.85,33905,10.5,73592.5,-7.99,-9.67,-9.75,0,*58
1486595093.05,33906,10.56,73594.0,-8.01,-9.79,-9.75,0,*5A
1486595094.25,33907,10.56,73594.3,-8.01,-9.75,-9.67,0,*54
1486595095.48,33908,10.56,73592.0,-7.99,-9.67,-9.75,0,*55
1486595096.68,33909,10.56,73594.3,-8.01,-9.67,-9.75,0,*5A
1486595097.88,33910,10.56,73590.3,-8.01,-9.79,-9.67,0,*5E
1486595099.11,33911,10.5,73590.5,-7.99,-9.67,-9.67,0,*5E
1486595100.31,33912,10.56,73590.8,-8.01,-9.67,-9.75,0,*50
1486595101.51,33913,10.5,73588.0,-8.01,-9.75,-9.75,0,*52
1486595102.72,33914,10.56,73594.3,-8.01,-9.79,-9.75,0,*59
1486595103.92,33915,10.56,73594.0,-8.01,-9.75,-9.75,0,*54
1486595105.15,33916,10.56,73594.3,-7.99,-9.75,-9.75,0,*59
1486595106.42,33917,10.56,73594.3,-7.99,-9.83,-9.83,0,*58
1486595107.62,33918,10.56,73594.8,-8.01,-9.79,-9.79,0,*59
1486595108.87,33919,10.56,73596.5,-8.01,-9.83,-9.83,0,*58
1486595110.11,33920,10.56,73596.5,-8.01,-9.83,-9.83,0,*52
1486595111.36,33921,10.5,73594.0,-8.01,-9.83,-9.83,0,*53
1486595112.56,33922,10.56,73602.3,-8.01,-9.75,-9.79,0,*5C
1486595113.76,33923,10.56,73596.8,-8.01,-9.79,-9.79,0,*51
1486595114.97,33924,10.56,73594.0,-8.01,-9.79,-9.79,0,*56
1486595116.2,33925,10.56,73598.3,-7.99,-9.79,-9.79,0,*59
1486595117.42,33926,10.56,73598.8,-8.01,-9.83,-9.75,0,*5D
1486595118.62,33927,10.56,73596.8,-8.01,-9.75,-9.75,0,*55
1486595119.84,33928,10.56,73596.0,-8.01,-9.83,-9.79,0,*5F
1486595121.04,33929,10.56,73596.3,-8.01,-9.79,-9.79,0,*5B
1486595122.29,33930,10.56,73596.3,-7.99,-9.83,-9.75,0,*54
1486595123.52,33931,10.56,73596.3,-7.99,-9.75,-9.79,0,*50
1486595124.72,33932,10.56,73598.8,-8.01,-9.75,-9.79,0,*5D
1486595125.93,33933,10.56,73600.0,-8.01,-9.75,-9.79,0,*5C
1486595127.13,33934,10.56,73598.8,-8.01,-9.75,-9.75,0,*57
1486595128.33,33935,10.5,73592.5,-8.01,-9.67,-9.75,0,*55
1486595129.56,33936,10.56,73596.0,-7.99,-9.67,-9.67,0,*5B
1486595130.76,33937,10.56,73598.0,-8.01,-9.67,-9.67,0,*54
1486595131.96,33938,10.56,73596.5,-8.01,-9.75,-9.75,0,*5B
1486595133.16,33939,10.56,73598.8,-8.01,-9.79,-9.75,0,*56
1486595134.41,33940,10.56,73598.8,-8.01,-9.83,-9.83,0,*54
1486595135.65,33941,10.56,73596.3,-8.01,-9.83,-9.83,0,*55
1486595136.92,33942,10.5,73592.0,-8.03,-9.83,-9.83,0,*54
1486595138.12,33943,10.56,73598.8,-8.01,-9.75,-9.79,0,*5B
1486595139.32,33944,10.56,73594.3,-8.01,-9.67,-9.79,0,*5F
1486595140.57,33945,10.56,73598.3,-8.03,-9.83,-9.79,0,*56
1486595141.78,33946,10.56,73598.5,-8.03,-9.89,-9.89,0,*50
1486595143.0,33947,10.56,73598.8,-8.03,-9.89,-9.89,0,*51
1486595144.27,33948,10.56,73596.3,-8.03,-9.83,-9.83,0,*5E
1486595145.51,33949,10.5,73594.3,-8.01,-9.83,-9.83,0,*5D
1486595146.72,33950,10.56,73600.5,-8.01,-9.79,-9.79,0,*55
1486595147.94,33951,10.56,73598.0,-8.01,-9.79,-9.83,0,*51
1486595149.15,33952,10.56,73598.8,-8.01,-9.79,-9.79,0,*57
1486595150.35,33953,10.56,73600.3,-8.01,-9.79,-9.79,0,*56
1486595151.58,33954,10.56,73602.3,-8.01,-9.79,-9.83,0,*54
1486595152.8,33955,10.5,73598.0,-8.01,-9.83,-9.79,0,*55
1486595154.0,33956,10.56,73600.8,-8.01,-9.67,-9.79,0,*5C
1486595155.2,33957,10.56,73596.3,-8.01,-9.79,-9.79,0,*52
1486595156.42,33958,10.56,73600.5,-8.01,-9.83,-9.79,0,*58
1486595157.65,33959,10.56,73598.3,-7.99,-9.79,-9.79,0,*52
1486595158.88,33960,10.56,73602.5,-8.01,-9.79,-9.83,0,*53
1486595160.12,33961,10.5,73596.5,-8.01,-9.83,-9.83,0,*57
1486595161.37,33962,10.56,73598.5,-8.01,-9.83,-9.83,0,*54
1486595162.59,33963,10.56,73600.5,-8.01,-9.83,-9.79,0,*50
1486595163.81,33964,10.56,73600.5,-8.01,-9.83,-9.79,0,*57
1486595165.04,33965,10.56,73598.5,-8.03,-9.89,-10.01,0,*69
1486595166.27,33966,10.5,73594.3,-8.03,-9.97,-10.01,0,*65
1486595167.51,33967,10.56,73600.3,-8.03,-10.01,-10.01,0,*53
1486595168.74,33968,10.56,73598.0,-8.03,-9.97,-10.01,0,*6B
1486595169.95,33969,10.56,73598.8,-8.05,-9.97,-10.01,0,*6C
1486595171.18,33970,10.56,73596.5,-8.03,-9.97,-10.01,0,*62
1486595172.39,33971,10.56,73602.0,-8.03,-9.89,-9.89,0,*54
1486595173.66,33972,10.56,73600.5,-8.03,-9.83,-9.83,0,*57
1486595174.88,33973,10.56,73600.0,-8.03,-9.89,-9.89,0,*56
1486595176.09,33974,10.56,73602.8,-8.05,-9.83,-9.89,0,*5D
1486595177.36,33975,10.56,73602.8,-8.03,-9.83,-9.83,0,*50
1486595178.61,33976,10.5,73596.5,-8.03,-9.79,-9.83,0,*56
1486595179.84,33977,10.56,73600.3,-8.03,-9.79,-9.89,0,*5D
1486595181.06,33978,10.56,73600.5,-8.03,-9.79,-9.79,0,*5D
1486595182.27,33979,10.56,73600.5,-8.05,-9.79,-9.79,0,*5A
1486595183.49,33980,10.5,73596.8,-8.03,-9.79,-9.79,0,*5A
1486595184.72,33981,10.5,73596.3,-8.03,-9.71,-9.79,0,*53
1486595185.95,33982,10.5,73596.5,-8.03,-9.79,-9.79,0,*58
1486595187.22,33983,10.56,73598.0,-8.03,-9.83,-9.83,0,*59
1486595188.47,33984,10.5,73596.8,-8.03,-9.79,-9.83,0,*5B
1486595189.74,33985,10.56,73602.8,-8.03,-9.83,-9.83,0,*5F
1486595190.98,33986,10.56,73604.3,-8.03,-9.83,-9.89,0,*56
1486595192.25,33987,10.56,73604.3,-8.03,-9.83,-9.83,0,*5D
1486595193.49,33988,10.5,73600.8,-8.03,-10.01,-10.01,0,*52
1486595194.72,33989,10.56,73600.5,-8.03,-9.97,-10.01,0,*64
1486595195.95,33990,10.56,73598.5,-8.03,-9.97,-10.01,0,*6C
1486595197.17,33991,10.5,73596.0,-8.03,-9.97,-9.97,0,*5A
1486595198.4,33992,10.56,73602.3,-8.03,-10.01,-9.97,0,*6E
1486595199.64,33993,10.56,73600.0,-8.03,-10.01,-10.15,0,*5D
1486595200.86,33994,10.56,73600.8,-8.03,-9.97,-9.97,0,*5F
1486595202.1,33995,10.5,73596.3,-8.03,-10.01,-10.01,0,*5E
1486595203.3,33996,10.5,73596.8,-8.05,-10.01,-9.97,0,*6C
1486595204.53,33997,10.56,73600.3,-8.03,-10.01,-10.01,0,*5C
1486595205.75,33998,10.56,73602.0,-8.05,-10.01,-10.01,0,*55
1486595206.95,33999,10.5,73598.8,-8.05,-9.97,-10.01,0,*63
1486595208.15,34000,10.56,73602.0,-8.05,-9.97,-9.97,0,*5A
1486595209.34,34001,10.56,73602.0,-8.05,-10.01,-9.97,0,*6C
1486595210.55,34002,10.56,73600.8,-8.05,-9.97,-10.01,0,*6F
1486595211.76,34003,10.56,73602.8,-8.05,-10.01,-10.01,0,*59
1486595212.95,34004,10.56,73600.0,-8.05,-9.97,-9.97,0,*5E
1486595214.16,34005,10.56,73602.5,-8.05,-9.97,-10.01,0,*68
1486595215.36,34006,10.5,73598.8,-8.05,-10.01,-9.97,0,*6B
1486595216.57,34007,10.5,73600.0,-8.05,-10.01,-10.09,0,*55
1486595217.77,34008,10.56,73600.0,-8.05,-9.97,-10.01,0,*65
1486595218.96,34009,10.5,73598.0,-8.05,-9.97,-9.97,0,*53
1486595220.15,34010,10.56,73602.3,-8.05,-9.89,-9.97,0,*54
1486595221.37,34011,10.56,73602.0,-8.05,-10.01,-10.01,0,*5A
1486595222.58,34012,10.5,73598.8,-8.05,-10.01,-10.01,0,*59
1486595223.79,34013,10.5,73598.5,-8.05,-10.01,-10.01,0,*58
1486595224.99,34014,10.56,73596.3,-8.05,-10.01,-10.09,0,*57
1486595226.19,34015,10.56,73600.5,-8.05,-9.97,-9.97,0,*5E
1486595227.38,34016,10.56,73598.5,-8.05,-9.97,-9.89,0,*52
1486595228.59,34017,10.56,73602.5,-8.05,-9.97,-10.01,0,*6B
1486595229.81,34018,10.56,73598.5,-8.07,-9.97,-9.97,0,*51
1486595231.03,34019,10.5,73596.0,-8.11,-9.93,-10.05,0,*60
1486595232.26,34020,10.56,73598.5,-8.03,-9.97,-10.01,0,*69
1486595233.46,34021,10.56,73600.5,-8.05,-9.97,-9.97,0,*59
1486595234.65,34022,10.5,73596.3,-8.05,-10.01,-9.97,0,*6D
1486595235.85,34023,10.56,73600.0,-8.05,-9.97,-9.89,0,*54
1486595237.05,34024,10.5,73596.0,-8.05,-9.97,-10.01,0,*6B
1486595238.29,34025,10.5,73598.8,-8.07,-10.01,-10.01,0,*5F
1486595239.52,34026,10.5,73598.5,-8.07,-10.01,-10.09,0,*54
1486595240.75,34027,10.5,73598.0,-8.07,-9.97,-10.09,0,*62
1486595241.99,34028,10.5,73596.3,-8.07,-9.97,-9.83,0,*57
1486595243.24,34029,10.56,73598.5,-8.07,-9.83,-9.89,0,*59
1486595244.48,34030,10.56,73602.5,-8.07,-9.89,-9.83,0,*51
1486595245.7,34031,10.56,73604.5,-8.07,-9.89,-9.97,0,*55
1486595246.93,34032,10.5,73600.5,-8.11,-10.01,-10.01,0,*5E
1486595248.17,34033,10.56,73602.3,-8.11,-10.01,-10.01,0,*5F
1486595249.39,34034,10.5,73602.8,-8.07,-9.97,-9.97,0,*5F
1486595250.61,34035,10.56,73600.5,-8.07,-9.89,-9.89,0,*5E
1486595251.82,34036,10.56,73606.0,-8.11,-9.89,-9.89,0,*5A
1486595253.09,34037,10.56,73602.5,-8.07,-9.83,-9.83,0,*5C
1486595254.31,34038,10.5,73602.8,-8.11,-9.89,-9.89,0,*54
1486595255.53,34039,10.5,73602.5,-8.07,-9.79,-9.71,0,*5A
1486595256.77,34040,10.56,73606.5,-8.07,-9.71,-9.71,0,*5C
1486595257.97,34041,10.5,73602.3,-8.05,-9.79,-9.71,0,*57
1486595259.19,34042,10.5,73600.5,-8.07,-9.79,-9.79,0,*5E
1486595260.42,34043,10.56,73606.5,-8.07,-9.79,-9.79,0,*5F
1486595261.65,34044,10.5,73600.8,-8.07,-9.79,-9.79,0,*58
1486595262.88,34045,10.5,73602.8,-8.07,-9.79,-9.79,0,*59
1486595264.1,34046,10.5,73602.3,-8.07,-9.79,-9.79,0,*5A
1486595265.31,34047,10.5,73600.5,-8.05,-9.79,-9.71,0,*51
1486595266.51,34048,10.5,73600.3,-8.05,-9.79,-9.79,0,*56
1486595267.7,34049,10.5,73600.3,-8.05,-9.89,-9.79,0,*58
1486595268.92,34050,10.5,73602.0,-8.05,-9.83,-9.79,0,*5A
1486595270.13,34051,10.56,73602.8,-8.07,-9.89,-9.97,0,*53
1486595271.38,34052,10.5,73600.8,-8.07,-9.83,-9.97,0,*5A
1486595272.6,34053,10.5,73602.0,-8.11,-9.93,-9.93,0,*59
1486595273.84,34054,10.5,73602.3,-8.07,-9.89,-9.83,0,*53
1486595275.08,34055,10.5,73598.5,-8.07,-9.83,-9.89,0,*52
1486595276.3,34056,10.5,73600.8,-8.11,-9.89,-9.89,0,*5C
1486595277.54,34057,10.5,73600.5,-8.07,-9.89,-9.83,0,*50
1486595278.81,34058,10.5,73602.5,-8.07,-9.83,-9.83,0,*55
1486595280.08,34059,10.5,73596.8,-8.07,-9.83,-9.83,0,*54
1486595281.29,34060,10.56,73600.8,-8.07,-9.89,-9.89,0,*5E
1486595282.56,34061,10.5,73596.0,-8.07,-9.83,-9.83,0,*5F
1486595283.81,34062,10.5,73596.3,-8.07,-9.83,-9.79,0,*59
1486595285.05,34063,10.56,73598.5,-8.07,-9.83,-9.79,0,*58
1486595286.28,34064,10.5,73598.8,-8.07,-9.79,-9.79,0,*5A
1486595287.55,34065,10.5,73598.5,-8.07,-9.83,-9.83,0,*5B
1486595288.79,34066,10.5,73596.8,-8.07,-9.89,-9.83,0,*52
1486595290.01,34067,10.5,73598.3,-8.07,-9.89,-9.97,0,*56
1486595291.23,34068,10.56,73598.3,-8.07,-9.89,-9.97,0,*59
1486595292.46,34069,10.56,73598.3,-8.07,-9.97,-10.01,0,*60
1486595293.69,34070,10.5,73596.3,-8.07,-9.97,-10.01,0,*68
1486595294.91,34071,10.5,73594.8,-8.07,-9.97,-9.97,0,*5E
1486595296.13,34072,10.5,73598.8,-8.11,-9.93,-9.97,0,*5E
1486595297.35,34073,10.5,73596.0,-8.07,-9.89,-9.97,0,*53
1486595298.56,34074,10.5,73592.8,-8.07,-9.89,-9.97,0,*54
1486595299.78,34075,10.5,73594.3,-8.07,-9.89,-9.89,0,*5A
1486595301.02,34076,10.56,73596.8,-8.07,-9.89,-9.83,0,*53
1486595302.24,34077,10.5,73592.8,-8.11,-9.93,-9.93,0,*5F
1486595303.46,34078,10.5,73594.8,-8.07,-9.89,-9.97,0,*58
1486595304.67,34079,10.5,73592.5,-8.07,-9.89,-9.89,0,*56
1486595305.89,34080,10.5,73592.0,-8.11,-9.89,-9.89,0,*57
1486595307.1,34081,10.5,73592.0,-8.11,-9.89,-9.89,0,*56
1486595308.32,34082,10.56,73594.3,-8.11,-9.89,-9.89,0,*55
1486595309.57,34083,10.56,73592.5,-8.07,-9.83,-9.79,0,*56